www.pogodaiklimat.ru

Погода и климат >> Архив погоды >> Буркина-Фасо >> Dori


ПОГОДА в Dori

  • Прогноз погоды в Dori
  • Монитор погоды в Dori
  • Климат города

АРХИВ ПОГОДЫ в Dori

Время (UTC), дата Ветер
(напр.,м/с)
 
Видим.   Явления Облачность Т
(С)
Тd
(С)
f
(%)
Тe
(С)
Тes
(С)
Комфортность P
(гПа)
Po
(гПа)
Тmin
(С)
Tmax
(С)
R
(мм)
S
(см)
00 19.03 штиль 0 10 км 9/0
[Ci sp]
+28.5 +5.2 23 +27 +27 жарко 1006.8 976.6
03 19.03 штиль 0 10 км 9/0
[Ci sp]
+27.6 +0.1 17 +25 +25 комфорт 1005.9 975.8
06 19.03 штиль 0 10 км 9/0
[Ci sp]
+26.5 +2.6 21 +25 +25 комфорт 1007.1 976.7 +26.3
09 19.03 В 2 10 км 9/0
[Ci sp]
+36.8 -0.2 10 +33 +42 жарко 1008.1 977.9
12 19.03 ЮВ 2 10 км 9/0
[Ci sp]
+40.5 -3.1 6 +36 +53 опасность
солнечного
удара
1007.0 976.8
15 19.03 ЮВ 2 10 км 9/0
[Ci sp]
+41.6 +6.7 12 +39 +47 очень
жарко
1004.6 974.4
18 19.03 штиль 0 10 км 9/0
[Ci sp]
+39.4 +9.9 17 +38 +38 очень
жарко
1004.8 974.6 +43.0
21 19.03 штиль 0 10 км 9/0
[Ci sp]
+33.8 +7.7 20 +32 +32 жарко 1006.7 976.6
00 20.03 штиль 0 10 км 9/0
[Ci sp]
+32.6 +1.6 14 +30 +30 жарко 1006.8 976.8
03 20.03 штиль 0 10 км 9/0
[Ci sp]
+30.7 +3.7 18 +28 +28 жарко 1005.6 975.6
06 20.03 штиль 0 10 км 9/0
[Ci sp]
+28.5 +3.9 21 +27 +27 жарко 1008.0 977.7 +28.5
09 20.03 ЮВ 2 10 км 9/0
[Ci sp]
+33.8 +0.5 12 +30 +39 жарко 1010.5 980.2
12 20.03 ЮВ 2 6000 м пыль 9/0
[Ci sp]
+39.5 +6.7 14 +37 +54 опасность
солнечного
удара
1008.9 978.8
15 20.03 ЮВ 1 8000 м пыль 9/0
[Ci sp]
+41.4 +12.8 19 +41 +51 опасность
перегрева
1006.2 976.2
18 20.03 штиль 0 10 км 9/0
[Ci sp]
+38.8 +14.1 23 +39 +39 очень
жарко
1006.7 976.4 +42.0
21 20.03 штиль 0 10 км 9/0
[Ci sp]
+33.8 +18.6 41 +39 +39 очень
душно
1008.4 978.1
03 21.03 штиль 0 10 км 9/0
[Ci sp]
+30.0 +10.1 29 +30 +30 жарко 1007.0 977.0
06 21.03 штиль 0 6000 м пыль 9/0
[Ci sp]
+29.0 +7.9 27 +28 +28 жарко 1009.0 978.7 +29.0
09 21.03 С 2 4000 м пыль 9/0
[Ci sp]
+32.8 +7.6 21 +31 +40 жарко 1010.0 979.6
12 21.03 С 3 4000 м пыль 9/0
[Ci sp]
+39.0 +7.3 15 +37 +51 опасность
солнечного
удара
1007.9 977.8
15 21.03 СВ 2 4000 м пыль 9/0
[Ci sp]
+40.5 +5.5 12 +38 +46 очень
жарко
1005.5 975.4
18 21.03 штиль 0 6000 м пыль 9/0
[Ci sp]
+37.7 +7.4 16 +36 +36 очень
жарко
1006.5 976.2 +41.7
21 21.03 штиль 0 8000 м пыль 9/0
[Ci sp]
+32.5 +11.6 28 +33 +33 жарко 1008.7 978.2
03 22.03 штиль 0 10 км 9/0
[Ci sp]
+28.0 +6.4 25 +27 +27 жарко 1006.9 976.7
06 22.03 С 1 10 км 9/0
[Ci sp]
+26.6 +5.1 25 +26 +26 жарко 1008.2 977.7 +26.6
09 22.03 С 2 8000 м пыль 9/0
[Ci sp]
+31.8 -0.9 12 +28 +37 жарко 1010.1 979.6
12 22.03 С 2 10 км 9/0
[Ci sp]
+38.2 +1.6 10 +35 +52 опасность
солнечного
удара
1008.9 978.7
15 22.03 С 2 10 км 9/0
[Ci sp]
+40.0 +3.5 11 +37 +46 очень
жарко
1006.2 976.0
18 22.03 СЗ 1 10 км 9/0
[Ci sp]
+37.1 +6.1 15 +35 +35 очень
жарко
1006.5 976.1 +41.1
21 22.03 штиль 0 10 км 9/0
[Ci sp]
+32.0 +7.2 21 +30 +30 жарко 1008.2 977.7
00 23.03 штиль 0 10 км 9/0
[Ci sp]
+28.2 +11.7 36 +29 +29 жарко 1008.5 978.1
03 23.03 СЗ 1 10 км 9/0
[Ci sp]
+27.0 +3.3 22 +26 +26 жарко 1007.5 977.2
06 23.03 штиль 0 10 км 9/0
[Ci sp]
+25.1 +3.3 24 +24 +24 комфорт 1008.4 977.9 +25.1
12 23.03 С 1 10 км 9/0
[Ci sp]
+39.0 +1.7 10 +35 +56 опасность
солнечного
удара
1009.0 978.6
15 23.03 С 1 10 км 9/0
[Ci sp]
+40.7 +3.3 10 +37 +48 очень
жарко
1006.3 976.1
18 23.03 штиль 0 10 км 9/0
[Ci sp]
+37.0 +7.2 16 +35 +35 очень
жарко
1008.3 977.8 +41.5
21 23.03 штиль 0 10 км 9/0
[Ci sp]
+32.5 +4.0 17 +30 +30 жарко 1007.9 977.5
00 24.03 штиль 0 10 км 9/0
[Ci sp]
+29.8 +4.5 20 +28 +28 жарко 1009.0 978.8
03 24.03 штиль 0 10 км 9/0
[Ci sp]
+27.1 +6.3 27 +26 +26 жарко 1008.4 978.1
06 24.03 штиль 0 10 км 9/0
[Ci sp]
+24.8 +4.6 27 +24 +24 комфорт 1009.2 978.6 +24.6
09 24.03 С 2 10 км 9/0
[Ac trans Ci sp]
+33.5 -1.8 10 +30 +38 жарко 1009.8 979.3
12 24.03 С 2 10 км 9/0
[Ci sp]
+39.2 +0.4 9 +35 +53 опасность
солнечного
удара
1009.9 979.6
15 24.03 СЗ 1 10 км 9/0
[Ci sp]
+40.3 +5.0 12 +37 +48 очень
жарко
1007.5 977.2
18 24.03 штиль 0 10 км 9/0
[Ac trans Ci sp]
+37.7 +8.4 17 +36 +36 очень
жарко
1007.8 977.3 +41.3
21 24.03 штиль 0 10 км 9/0
[Ci sp]
+33.3 +8.8 22 +32 +32 жарко 1009.3 979.0
00 25.03 штиль 0 10 км 9/0
[Ci sp]
+30.0 +7.4 24 +29 +29 жарко 1009.6 979.3
03 25.03 штиль 0 10 км 9/0
[Ci sp]
+27.6 +6.6 26 +27 +27 жарко 1008.7 978.4
06 25.03 штиль 0 10 км 9/0
[Ci sp]
+25.8 +4.9 26 +25 +25 комфорт 1009.7 979.1 +25.8
09 25.03 С 2 10 км 9/0
[Ci sp]
+34.6 +1.3 12 +31 +40 жарко 1011.3 981.0
12 25.03 С 3 10 км 9/0
[Ci sp]
+41.0 +1.1 8 +37 +52 опасность
солнечного
удара
1010.0 979.8
15 25.03 С 2 10 км 9/0
[Ci sp]
+41.7 +0.9 8 +38 +47 очень
жарко
1006.6 976.4
18 25.03 С 1 10 км 9/0
[Ci sp]
+38.6 +5.4 13 +36 +36 очень
жарко
1007.0 976.6 +42.4
21 25.03 штиль 0 10 км 9/0
[Ci sp]
+32.4 +9.7 25 +32 +32 жарко 1009.4 979.1

 

Местоположение метеостанции Dori (Буркина-Фасо): широта 14.03 долгота -0.03 высота над уровнем моря 277 м.

В архиве по умолчанию представлена погода в Dori за последнюю неделю. Архивные данные за месяц целиком и за предыдущие месяцы, начиная с января 2011 года, Вы можете получить, выбрав интересующий диапазон дат из раскрывающегося списка и нажав кнопку "Ввод!".

Внимание! Время в таблицах - всемирное. Для получения местного времени необходимо прибавить поправку, которая в Dori равна 0 ч.

Смотрите также архив погоды в соседних городах и на ближайших метеорологических станциях:

Погода в Tillabery (Нигер) (161 км)
Погода в Fada N`Gourma (Буркина-Фасо) (227 км)
Погода в Niamey-Aero (Нигер) (245 км)
Погода в Ouagadougou (Буркина-Фасо) (247 км)
Погода в Ouahigouya (Буркина-Фасо) (263 км)
Погода в Po (Буркина-Фасо) (343 км)
Погода в Dapaon (Того) (354 км)
Погода в Navrongo (Гана) (367 км)
Погода в Dosso (Нигер) (367 км)
Погода в Boromo (Буркина-Фасо) (404 км)

Пояснения к столбцам:

Ветер - указаны скорость ветра в м/с - средняя за 10 мин, порывы в срок и между сроками (в фигурных скобках) и направление, откуда дует ветер: С - северный, СВ - северо-восточный, В - восточный, ЮВ - юго-восточный, Ю - южный, ЮЗ - юго-западный, З - западный, СЗ - северо-западный.
Видимость - горизонтальная дальность видимости в метрах или километрах. При видимости от 1 до 10 км при отсутствии осадков обычно наблюдается дымка, при ухудшении видимости до 1 км и менее - туман. В сухую погоду видимость может ухудшаться дымом, пылью или мглою.
Явления - указаны атмосферные явления, наблюдавшиеся в срок или в последний час перед сроком; фигурными скобками обозначены явления, наблюдавшиеся между сроками (за 1-3 часа до срока); квадратными скобками обозначены град или гололедные отложения с указанием их диаметра в мм.
Облачность - указаны через наклонную черту общая и нижняя облачность в баллах и высота нижней границы облаков в метрах; квадратными скобками обозначены формы облаков: Ci - перистые, Cs - перисто-слоистые, Cc - перисто-кучевые, Ac - высококучевые, As - высокослоистые, Sc - слоисто-кучевые, Ns - слоисто-дождевые, Cu - кучевые, Cb - кучево-дождевые. Подробнее классификацию облаков см. в Атласе облаков (PDF).
T - Температура воздуха - температура, измеренная на высоте 2 м над землей.
Td - Температура точки росы - температура, при понижении до которой содержащийся в воздухе водяной пар достигнет насыщения.
f - Относительная влажность воздуха - влажноcть воздуха, измеренная на высоте 2 м над землей.
Te - Эффективная температура - температура, которую ощущает одетый по сезону человек в тени. Характеристика душности погоды. При расчете учитывается влияние влажности воздуха и скорости ветра на теплоощущения человека.
Tes - Эффективная температура на солнце - температура, которую ощущает человек, с поправкой на солнечный нагрев. Характеристика знойности погоды. Зависит от высоты солнца над горизонтом, облачности и скорости ветра. Ночью, в пасмурную погоду, а также при ветре 12 м/с и более поправка равна нулю.
P - Атмосферное давление - приведенное к уровню моря атмосферное давление.
Po - Атмосферное давление - измеренное на уровне метеостанции атмосферное давление.
Tmin - Минимальная температура - минимум температуры воздуха на высоте 2 м над землей.
Tmax - Максимальная температура - максимум температуры воздуха на высоте 2 м над землей.
R - Количество осадков - Количество выпавших осадков, мм. При наведении курсора мыши на число - период времени, за который выпало указанное количество осадков.
S - Снежный покров - Высота снежного покрова, см. При наведении курсора мыши на число - состояние снежного покрова и степень покрытия местности в баллах.